When you browse on this site, cookies collect data to enhance your experience and personalize the content and advertising you see.
Visit our Privacy Policy to learn more. By continuing to use the site, you agree to this use of cookies and data.
  • In Hungary
  • List of Countries
  • For 7 days
  • Water Temperature
  • Satellite Maps
  • Weather Map
  • News
  • Weather Widgets
  • user-avatar
    Login

    Hourly Weather Potoky

    Today, 20 July, Saturday

    Time Temperature Precipitation Wind Pressure Humidity
    00:00 +19°C° 0 mm 1 mps 754 mmHg 65%
    01:00 +19°C° 0 mm 1 mps 754 mmHg 66%
    02:00 +18°C° 0 mm 1 mps 754 mmHg 67%
    03:00 +18°C° 0 mm 1 mps 754 mmHg 68%
    04:00 +19°C° 0 mm 1 mps 755 mmHg 68%
    05:00 +19°C° 0 mm 1 mps 755 mmHg 69%
    06:00 +21°C° 0 mm 1 mps 755 mmHg 64%
    07:00 +23°C° 0 mm 1 mps 755 mmHg 58%
    08:00 +25°C° 0 mm 2 mps 755 mmHg 52%
    09:00 +26°C° 0 mm 2 mps 755 mmHg 48%
    10:00 +27°C° 0 mm 2 mps 755 mmHg 43%
    11:00 +28°C° 0 mm 2 mps 755 mmHg 39%
    12:00 +29°C° 0 mm 2 mps 755 mmHg 38%
    13:00 +29°C° 0 mm 2 mps 755 mmHg 37%
    14:00 +30°C° 0 mm 3 mps 755 mmHg 36%
    15:00 +29°C° 0 mm 2 mps 754 mmHg 37%
    16:00 +29°C° 0 mm 2 mps 754 mmHg 38%
    17:00 +29°C° 0 mm 2 mps 754 mmHg 40%
    18:00 +27°C° 0 mm 2 mps 755 mmHg 45%
    19:00 +25°C° 0 mm 2 mps 755 mmHg 50%
    20:00 +24°C° 0 mm 1 mps 755 mmHg 55%
    21:00 +23°C° 0 mm 1 mps 755 mmHg 56%
    22:00 +22°C° 0 mm 1 mps 755 mmHg 57%
    23:00 +22°C° 0 mm 1 mps 755 mmHg 58%

    Tomorrow, 21 July, Sunday

    Time Temperature Precipitation Wind Pressure Humidity
    00:00 +21°C° 0 mm 1 mps 755 mmHg 58%
    01:00 +21°C° 0 mm 1 mps 755 mmHg 59%
    02:00 +21°C° 0 mm 1 mps 755 mmHg 60%
    03:00 +21°C° 0 mm 1 mps 755 mmHg 61%
    04:00 +20°C° 0 mm 1 mps 755 mmHg 63%
    05:00 +20°C° 0 mm 1 mps 755 mmHg 65%
    06:00 +21°C° 0 mm 2 mps 755 mmHg 61%
    07:00 +24°C° 0 mm 2 mps 755 mmHg 57%
    08:00 +26°C° 0 mm 2 mps 755 mmHg 53%
    09:00 +26°C° 0 mm 2 mps 755 mmHg 51%
    10:00 +27°C° 0 mm 2 mps 755 mmHg 49%
    11:00 +28°C° 0 mm 2 mps 754 mmHg 47%
    12:00 +29°C° 0 mm 2 mps 754 mmHg 43%
    13:00 +30°C° 0 mm 2 mps 754 mmHg 40%
    14:00 +31°C° 0 mm 2 mps 754 mmHg 37%
    15:00 +31°C° 0 mm 2 mps 754 mmHg 39%
    16:00 +31°C° 0 mm 2 mps 753 mmHg 41%
    17:00 +30°C° 0 mm 2 mps 753 mmHg 44%
    18:00 +29°C° 0 mm 2 mps 753 mmHg 48%
    19:00 +27°C° 0 mm 1 mps 753 mmHg 52%
    20:00 +25°C° 0 mm 1 mps 753 mmHg 56%
    21:00 +25°C° 0.1 mm 1 mps 753 mmHg 59%
    22:00 +24°C° 0.1 mm 1 mps 754 mmHg 62%
    23:00 +23°C° 0.1 mm 1 mps 754 mmHg 64%

    Day after tomorrow, 22 July, Monday

    Time Temperature Precipitation Wind Pressure Humidity
    00:00 +23°C° 0.1 mm 1 mps 754 mmHg 65%
    01:00 +21°C° 0.1 mm 0 mps 753 mmHg 66%
    02:00 +20°C° 0.1 mm 0 mps 753 mmHg 67%
    03:00 +22°C° 0 mm 1 mps 753 mmHg 67%
    04:00 +22°C° 0 mm 1 mps 753 mmHg 66%
    05:00 +22°C° 0 mm 1 mps 753 mmHg 66%
    06:00 +24°C° 0 mm 1 mps 753 mmHg 61%
    07:00 +26°C° 0 mm 1 mps 753 mmHg 57%
    08:00 +28°C° 0 mm 2 mps 752 mmHg 52%
    09:00 +29°C° 0 mm 3 mps 752 mmHg 48%
    10:00 +32°C° 0 mm 4 mps 752 mmHg 45%
    11:00 +33°C° 0 mm 5 mps 752 mmHg 41%
    12:00 +33°C° 0 mm 4 mps 752 mmHg 43%
    13:00 +33°C° 0 mm 4 mps 751 mmHg 44%
    14:00 +33°C° 0 mm 4 mps 751 mmHg 45%
    15:00 +32°C° 0 mm 4 mps 751 mmHg 45%
    16:00 +32°C° 0 mm 4 mps 751 mmHg 46%
    17:00 +31°C° 0 mm 3 mps 750 mmHg 47%
    18:00 +29°C° 0.3 mm 3 mps 750 mmHg 56%
    19:00 +27°C° 0.3 mm 4 mps 750 mmHg 64%
    20:00 +25°C° 0.3 mm 4 mps 750 mmHg 73%
    21:00 +24°C° 0.2 mm 3 mps 750 mmHg 77%
    22:00 +22°C° 0.2 mm 3 mps 750 mmHg 81%
    23:00 +21°C° 0.2 mm 3 mps 750 mmHg 85%

    23 July, Tuesday

    Time Temperature Precipitation Wind Pressure Humidity
    00:00 +21°C° 0 mm 2 mps 750 mmHg 86%
    01:00 +20°C° 0 mm 2 mps 750 mmHg 86%
    02:00 +20°C° 0 mm 2 mps 750 mmHg 86%
    03:00 +20°C° 0 mm 2 mps 750 mmHg 86%
    04:00 +19°C° 0 mm 2 mps 750 mmHg 86%
    05:00 +19°C° 0 mm 2 mps 750 mmHg 86%
    06:00 +20°C° 0 mm 2 mps 750 mmHg 82%
    07:00 +21°C° 0 mm 2 mps 750 mmHg 78%
    08:00 +23°C° 0 mm 2 mps 750 mmHg 74%
    09:00 +24°C° 0 mm 3 mps 749 mmHg 66%
    10:00 +26°C° 0 mm 3 mps 749 mmHg 59%
    11:00 +27°C° 0 mm 4 mps 749 mmHg 52%
    12:00 +27°C° 0 mm 4 mps 749 mmHg 52%
    13:00 +27°C° 0 mm 4 mps 749 mmHg 52%
    14:00 +27°C° 0 mm 5 mps 748 mmHg 52%
    15:00 +26°C° 0 mm 4 mps 748 mmHg 52%
    16:00 +26°C° 0 mm 4 mps 748 mmHg 52%
    17:00 +26°C° 0 mm 4 mps 748 mmHg 53%
    18:00 +24°C° 0 mm 3 mps 748 mmHg 59%
    19:00 +21°C° 0 mm 3 mps 748 mmHg 66%
    20:00 +20°C° 0 mm 3 mps 748 mmHg 73%
    21:00 +19°C° 0 mm 3 mps 748 mmHg 75%
    22:00 +18°C° 0 mm 2 mps 748 mmHg 76%
    23:00 +18°C° 0 mm 2 mps 748 mmHg 78%

    24 July, Wednesday

    Time Temperature Precipitation Wind Pressure Humidity
    00:00 +17°C° 0 mm 2 mps 748 mmHg 81%
    01:00 +17°C° 0 mm 2 mps 748 mmHg 83%
    02:00 +16°C° 0 mm 2 mps 748 mmHg 86%
    03:00 +16°C° 0 mm 2 mps 747 mmHg 85%
    04:00 +16°C° 0 mm 1 mps 747 mmHg 85%
    05:00 +18°C° 0 mm 1 mps 747 mmHg 85%
    06:00 +18°C° 0.1 mm 1 mps 747 mmHg 84%
    07:00 +18°C° 0.1 mm 1 mps 747 mmHg 83%
    08:00 +19°C° 0.1 mm 1 mps 747 mmHg 82%
    09:00 +19°C° 0.2 mm 1 mps 747 mmHg 80%
    10:00 +20°C° 0.2 mm 1 mps 747 mmHg 79%
    11:00 +21°C° 0.2 mm 1 mps 747 mmHg 78%
    12:00 +22°C° 0.2 mm 1 mps 747 mmHg 71%
    13:00 +24°C° 0.2 mm 2 mps 747 mmHg 65%
    14:00 +25°C° 0.2 mm 3 mps 748 mmHg 59%
    15:00 +25°C° 0.2 mm 3 mps 748 mmHg 58%
    16:00 +26°C° 0.2 mm 3 mps 748 mmHg 58%
    17:00 +26°C° 0.2 mm 4 mps 748 mmHg 57%
    18:00 +23°C° 0.1 mm 4 mps 748 mmHg 63%
    19:00 +22°C° 0.1 mm 4 mps 748 mmHg 70%
    20:00 +20°C° 0.1 mm 4 mps 749 mmHg 76%
    21:00 +19°C° 0 mm 3 mps 749 mmHg 80%
    22:00 +19°C° 0 mm 3 mps 749 mmHg 84%
    23:00 +18°C° 0 mm 3 mps 750 mmHg 88%

    25 July, Thursday

    Time Temperature Precipitation Wind Pressure Humidity
    00:00 +17°C° 0 mm 3 mps 750 mmHg 89%
    01:00 +17°C° 0 mm 3 mps 750 mmHg 91%
    02:00 +16°C° 0 mm 3 mps 750 mmHg 92%
    03:00 +16°C° 0 mm 3 mps 750 mmHg 91%
    04:00 +16°C° 0 mm 3 mps 751 mmHg 89%
    05:00 +16°C° 0 mm 3 mps 751 mmHg 88%
    06:00 +18°C° 0 mm 3 mps 751 mmHg 81%
    07:00 +20°C° 0 mm 4 mps 751 mmHg 73%
    08:00 +23°C° 0 mm 4 mps 751 mmHg 66%
    09:00 +25°C° 0 mm 4 mps 751 mmHg 60%
    10:00 +26°C° 0 mm 4 mps 751 mmHg 54%
    11:00 +28°C° 0 mm 5 mps 751 mmHg 48%
    12:00 +28°C° 0.1 mm 5 mps 751 mmHg 47%
    13:00 +28°C° 0.1 mm 5 mps 751 mmHg 46%
    14:00 +29°C° 0.1 mm 5 mps 751 mmHg 44%
    15:00 +29°C° 0 mm 5 mps 750 mmHg 45%
    16:00 +28°C° 0 mm 5 mps 750 mmHg 46%
    17:00 +28°C° 0 mm 5 mps 750 mmHg 47%
    18:00 +26°C° 0 mm 4 mps 750 mmHg 53%
    19:00 +25°C° 0 mm 3 mps 750 mmHg 59%
    20:00 +22°C° 0 mm 3 mps 750 mmHg 65%
    21:00 +21°C° 0 mm 3 mps 750 mmHg 68%
    22:00 +21°C° 0 mm 3 mps 750 mmHg 71%
    23:00 +20°C° 0 mm 3 mps 750 mmHg 74%
    Show more